Вернуться в каталог

CatSat

CATSAT

АктивенЛюбительское радиоSSO
NORAD 60246·PAYLOAD·🇺🇸 United States

Запущен Jul 4, 2024 с Vandenberg Space Force Base

Loading…

Ближайшие Пролёты (ближайшие 24 часа)

TLE

СвежийSource: Space-Track

Эпоха: Sep 14, 2026, 08:38 UTC

1 60246U 24125J   26257.36025011  .00090279  00000-0  69832-3 0  9990
2 60246  97.1950 111.7636 0015239 199.4227 160.6457 15.71456844121334

Отслеживайте CatSat в реальном времени с AllMySat

Download on the App Store